sat.trackr.live / text

‹ back to catalog

STARLINK-34060

NORAD 63815 · 2025-092M

PAYLOAD ACTIVE UNKNOWN

§ Identity

Operator
Country
US
Launch date
2025-05-04
Launch site
AFETR
Launch vehicle
Mass (kg)
RCS (m²)

Purposes: comms

External: N2YO · Heavens-Above · Gunter

§ Orbital elements

Epoch: 2026-09-20T23:19:14.952576Z

Period
94.27 min
Inclination
42.9987°
Eccentricity
0.0000914
Mean motion
15.27598387 rev/d
Perigee alt
482.4 km
Apogee alt
483.6 km
Semi-major
6,861.1 km
B*
4.3317e-4
RAAN
149.4186°
Arg perigee
261.2020°
Mean anomaly
98.8728°
Rev number
7,842

§ Raw data

STARLINK-340601 63815U 25092M   26263.97170084  .00011683  00000+0  43317-3 0  99952 63815  42.9987 149.4186 0000914 261.2020  98.8728 15.27598387 78422

JSON: /api/v1/satellites/63815 · /tle

For live sub-satellite position, see the globe view (requires WebGL).

§ Visibility from observer

Set your observer location to see the next 7 days of passes ≥ 10°. The values pass through the URL so the page stays shareable.

No JS? Fill the form by hand. The geolocation button needs JavaScript.